Погода в Беллинцоне

Швейцария     46°11′36″N   9°01′10″E
темп.,
°C
ветер,
м/с
пор.,
м/с
влажн.,
%
обл.,
%
осадки,
мм/ч
давл.,
гПа
погр.,
м
17 сентября, пт
пт1723:00+11св2395100 8.8 101651
02:00+10ссв349398 9.0 101567
05:00+10с349211 0.0 101476
08:00+10ссв35924 0.0 101499
11:00+17с23530 0.0 10121040
14:00+21юз11438 0.0 10111820
17:00+20юз22486 0.0 10101081
20:00+12ссв22855 0.2 101221
18 сентября, сб
сб1823:00+10ссв33824 0.0 101444
02:00+10ссв22766 0.0 101428
05:00+10ссв22745 0.0 101424
08:00+10ссв22740 0.0 101428
11:00+17ююз21560 0.0 1013713
14:00+19ююз32558 0.1 10121345
17:00+17ююз327773 0.4 1012789
20:00+13ю119799 1.8 101314
19 сентября, вс
вс1923:00+12всв1295100 1.3 101431
02:00+10св229598 2.2 101332
05:00+10св1196100 1.0 101224
08:00+11св2398100 18.0 1011172
11:00+10ссз2495100 7.6 1012186
14:00+8сз3697100 16.9 1014391
17:00+9ссв3591100 5.6 1014330
20:00+7ссв359198 5.8 1015171
20 сентября, пн
пн2023:00+6ссв359010 0.0 101692
02:00+5ссв34895 0.0 101761
05:00+5ссв33836 0.0 101541
08:00+7ссв227358 0.0 101448
11:00+13ююв115353 0.0 1013564
14:00+16ююз3246100 0.0 10121555
17:00+14зюз1156100 0.0 1012716
20:00+9ссв338390 0.1 101665
21 сентября, вт
вт2123:00+8ссв347920 0.0 101877
02:00+7ссв33816 0.0 102047
05:00+6ссв32831 0.0 102042
08:00+7ссв22794 0.0 102143
11:00+14ююз21554 0.0 1020785
14:00+16ююз31519 0.0 10201391
17:00+15ююз215926 0.0 1020847
20:00+10с11875 0.1 102113